This is the latest recevied weather packets stored in our database for station/object IZ5MMH-1. If no packets are shown the sender has not sent any weather packets the latest 10 day(s).
| Time | Temp. | Humidity | Pressure | Rain* | Wind** | Luminosity | Snow |
|---|---|---|---|---|---|---|---|
| 1788035702 | 23.89° C | 48% | 1015.7 hPa | - | - | - | - |
| 1788035102 | 23.89° C | 47% | 1015.7 hPa | - | - | - | - |
| 1788034501 | 24.44° C | 47% | 1015.7 hPa | - | - | - | - |
| 1788033902 | 24.44° C | 46% | 1015.7 hPa | - | - | - | - |
| 1788033301 | 24.44° C | 45% | 1015.7 hPa | - | - | - | - |
| 1788032702 | 25° C | 47% | 1015.7 hPa | - | - | - | - |
| 1788032102 | 24.44° C | 46% | 1015.7 hPa | - | - | - | - |
| 1788031501 | 24.44° C | 46% | 1015.6 hPa | - | - | - | - |
| 1788030901 | 25° C | 45% | 1015.8 hPa | - | - | - | - |
| 1788030301 | 25° C | 45% | 1015.8 hPa | - | - | - | - |
| 1788029702 | 25.56° C | 44% | 1015.7 hPa | - | - | - | - |
| 1788029102 | 25.56° C | 43% | 1015.6 hPa | - | - | - | - |
| 1788028502 | 26.11° C | 43% | 1015.5 hPa | - | - | - | - |
| 1788027902 | 26.67° C | 43% | 1015.3 hPa | - | - | - | - |
| 1788027302 | 26.67° C | 43% | 1015.3 hPa | - | - | - | - |
| 1788026701 | 27.22° C | 40% | 1015.2 hPa | - | - | - | - |
| 1788026102 | 27.22° C | 39% | 1015.3 hPa | - | - | - | - |
| 1788025502 | 27.78° C | 38% | 1015.2 hPa | - | - | - | - |
| 1788024901 | 27.78° C | 38% | 1015.2 hPa | - | - | - | - |
| 1788024302 | 28.33° C | 36% | 1015.1 hPa | - | - | - | - |
| 1788023701 | 28.89° C | 35% | 1015.1 hPa | - | - | - | - |
| 1788023102 | 29.44° C | 34% | 1015.2 hPa | - | - | - | - |
| 1788022503 | 29.44° C | 34% | 1015.1 hPa | - | - | - | - |
| 1788021901 | 29.44° C | 33% | 1015 hPa | - | - | - | - |
| 1788021301 | 30° C | 32% | 1015.1 hPa | - | - | - | - |
* Rain since midnight (hover to see other rain measurements)
** Current wind speed in m/s (hover to see current wind gust speed)